Weather History for Los Angeles Downtown, CA

Change the Weather History Date:

Tuesday, April 8, 2014

  Actual Average Record
Temperature  
Mean Temperature 73 °F 62 °F  
Max Temperature 88 °F 72 °F 92 °F (1989)
Min Temperature 58 °F 53 °F 36 °F (1901)
Degree Days  
Heating Degree Days 0 4  
Month to date heating degree days 33 32  
Since 1 July heating degree days 573 964  
Cooling Degree Days 8 1  
Month to date cooling degree days 13 8  
Year to date cooling degree days 65 51  
Growing Degree Days 24 (Base 50)    
Moisture  
Dew Point 42 °F    
Average Humidity 41    
Maximum Humidity 65    
Minimum Humidity 16    
Precipitation  
Precipitation 0.00 in 0.04 in 2.19 in (1935)
Month to date precipitation 0.29 0.33  
Year to date precipitation 5.05 9.68  
Since 1 July precipitation 6.02 14.00  
Sea Level Pressure  
Sea Level Pressure 30.04 in    
Wind  
Wind Speed 2 mph (WSW)    
Max Wind Speed 9 mph    
Max Gust Speed 13 mph    
Visibility 10 miles    
Events      
T = Trace of Precipitation, MM = Missing Value Source: NWS Daily Summary

Daily Weather History Graph

Daily Weather History Graph

Search for Another Location

Airport:

Trip Planner

Search our weather history database for the weather conditions in past years. The results will help you decide how hot, cold, wet, or windy it might be!

Date:

Astronomy

Apr. 08, 2014 Rise Set
Actual Time 6:31 AM PDT 7:19 PM PDT
Civil Twilight 6:05 AM PDT 7:44 PM PDT
Nautical Twilight 5:35 AM PDT 8:14 PM PDT
Astronomical Twilight 5:04 AM PDT 8:45 PM PDT
Moon 1:32 PM PDT (4/8) 2:31 AM PDT (4/8)
Length of Visible Light 13h 39m
Length of Day
12h 48m
Waxing Gibbous, 63% of the Moon is Illuminated
Apr 8
Waxing Gibbous
Apr 15
Full
Apr 22
Last Quarter
Apr 28
New
May 6
First Quarter

Hourly Weather History & Observations

Time (PDT) Temp. Dew Point Humidity Pressure Visibility Wind Dir Wind Speed Gust Speed Precip Events Conditions
12:47 AM 66.0 °F 45.0 °F 47% 30.06 in 10.0 mi Calm Calm - N/A   Clear
1:47 AM 63.0 °F 46.9 °F 56% 30.06 in 10.0 mi Calm Calm - N/A   Clear
2:47 AM 62.1 °F 46.0 °F 56% 30.06 in 10.0 mi Calm Calm - N/A   Clear
3:47 AM 61.0 °F 46.9 °F 60% 30.06 in 10.0 mi Calm Calm - N/A   Clear
4:47 AM 59.0 °F 45.0 °F 60% 30.06 in 10.0 mi Calm Calm - N/A   Clear
5:47 AM 60.1 °F 45.0 °F 57% 30.05 in 6.0 mi Calm Calm - N/A   Haze
6:47 AM 60.1 °F 42.1 °F 51% 30.08 in 10.0 mi Calm Calm - N/A   Clear
7:47 AM 68.0 °F 39.0 °F 35% 30.09 in 10.0 mi Calm Calm - N/A   Clear
8:47 AM 73.9 °F 42.1 °F 32% 30.09 in 10.0 mi Calm Calm - N/A   Clear
9:47 AM 80.1 °F 35.1 °F 20% 30.09 in 10.0 mi Variable 3.5 mph - N/A   Clear
10:47 AM 84.9 °F 35.1 °F 17% 30.09 in 10.0 mi SE 3.5 mph - N/A   Clear
11:47 AM 87.1 °F 36.0 °F 16% 30.07 in 10.0 mi Calm Calm - N/A   Clear
12:47 PM 87.1 °F 46.9 °F 25% 30.05 in 10.0 mi Variable 3.5 mph - N/A   Clear
1:47 PM 88.0 °F 44.1 °F 22% 30.04 in 10.0 mi Variable 3.5 mph - N/A   Clear
2:47 PM 87.1 °F 37.0 °F 17% 30.02 in 10.0 mi WSW 4.6 mph - N/A   Clear
3:47 PM 86.0 °F 37.9 °F 18% 30.01 in 10.0 mi Variable 4.6 mph - N/A   Clear
4:47 PM 86.0 °F 36.0 °F 17% 29.99 in 10.0 mi Variable 5.8 mph - N/A   Clear
5:47 PM 82.0 °F 35.1 °F 18% 29.99 in 10.0 mi Variable 5.8 mph - N/A   Clear
6:47 PM 80.1 °F 34.0 °F 19% 29.98 in 10.0 mi Variable 5.8 mph - N/A   Clear
7:47 PM 73.0 °F 39.9 °F 30% 29.99 in 10.0 mi WNW 3.5 mph - N/A   Clear
8:47 PM 69.1 °F 45.0 °F 42% 30.01 in 10.0 mi Calm Calm - N/A   Clear
9:47 PM 66.9 °F 48.9 °F 52% 30.02 in 10.0 mi Calm Calm - N/A   Clear
10:47 PM 64.0 °F 51.1 °F 63% 30.02 in 10.0 mi Calm Calm - N/A   Clear
11:47 PM 62.1 °F 50.0 °F 65% 30.03 in 10.0 mi Calm Calm - N/A   Clear